Location: *
(43.7347°N, 7.4205°E)
Time: 21:19:33
(UTC+00:00)

Daily predictions for brighter satellites

Satellite Brightness Start Highest point End
(mag) Time Altitude Azimuth Time Altitude Azimuth Time Altitude Azimuth
Cosmos 2082 Rocket 4.1 19:47:50 10° ESE 19:49:06 11° E 19:50:22 10° E
Cosmos 1271 Rocket 3.2 19:45:23 10° N 19:49:14 46° ENE 19:53:00 10° SSE
H-2A R/B 3.4 19:45:37 10° S 19:49:16 44° W 19:52:57 10° NNW
NOSS 2-1 (D) 4.2 19:46:26 10° NW 19:51:07 82° NE 19:57:49 10° SE
USA 276 4.0 19:49:12 10° WNW 19:51:57 30° NNW 19:54:41 10° NE
Meteor 2-10 Rocket 4.5 19:47:45 10° NNW 19:52:33 47° W 19:57:21 10° SSW
H-2A R/B 2.1 19:51:37 10° NNE 19:56:05 80° ESE 20:00:35 10° SSW
Cosmos 1536 Rocket 4.3 19:52:43 10° SSE 19:56:34 32° E 20:00:28 10° NNE
USA 245 4.5 19:53:17 10° SE 19:56:43 26° ENE 19:59:37 10° NNE
Cosmos 2056 Rocket 4.3 19:51:47 10° SSW 19:57:06 60° WNW 20:02:29 10° NNE
Cosmos 1455 2.4 19:54:53 10° N 19:58:39 55° E 20:02:23 10° SSE
Cosmos 1420 Rocket 4.4 19:54:15 10° SSW 19:59:28 70° WNW 20:04:46 10° NNE
Cosmos 1709 Rocket 4.2 19:54:48 10° N 20:01:03 80° W 20:07:20 10° S
CARTOSAT-1 4.2 19:57:09 10° SE 20:01:12 42° ENE 20:05:17 10° N
Cosmos 1975 Rocket 3.8 19:58:14 10° SSW 20:02:36 58° W 20:06:58 10° N
SL-24 R/B 4.5 19:59:27 10° SSE 20:03:43 59° ENE 20:08:35 10° N
Cosmos 676 Rocket 4.2 19:58:48 10° NNW 20:04:07 77° WSW 20:09:21 10° SSE
ATLAS 5 CENTAUR R/B 3.3 19:53:42 10° NW 20:06:28 69° WSW 20:10:19 10° SSE
Cosmos 2315 Rocket 4.2 20:00:58 10° S 20:07:17 80° W 20:13:36 10° N
Tiangong 2.9 20:04:57 10° WSW 20:07:19 19° SSW 20:09:38 10° SSE
SPOT 3 Rocket 4.0 20:05:42 10° SE 20:10:42 50° ENE 20:15:44 10° N
Ariane Rocket 3.0 20:07:08 10° SSE 20:12:13 79° ENE 20:17:20 10° NNW
Cosmos 2074 Rocket 4.4 20:07:47 10° N 20:13:51 49° ENE 20:19:38 11° SSE
Cosmos 1544 Rocket 3.7 20:16:15 10° N 20:20:35 78° W 20:24:55 10° S
Lacrosse 5 rocket 3.5 20:19:22 10° W 20:21:54 17° SW 20:24:31 10° SSW
GEOS 3 Rocket 3.9 20:17:17 10° SSE 20:22:17 62° SW 20:27:22 10° NW
Cosmos 1656 3.6 20:17:41 10° NNW 20:23:12 87° ENE 20:28:15 13° SSE
MetOp-B 4.2 20:24:10 10° SSE 20:29:31 86° WSW 20:34:54 10° NNW
ATLAS 2AS CENTAUR R/B 3.2 20:22:54 10° NW 20:29:41 53° WSW 20:35:55 10° SSE
Cosmos 1850 Rocket 4.0 20:26:54 10° NNW 20:32:07 74° ENE 20:36:20 16° SSE
USA 32 4.4 20:28:57 10° SSW 20:34:07 66° W 20:39:21 10° N
Cosmos 1980 Rocket 3.5 20:29:49 10° N 20:34:46 29° NE 20:39:07 12° ESE
Cosmos 1697 Rocket 3.0 20:29:46 10° NNW 20:35:17 53° ENE 20:39:32 17° SE
Cosmos 1331 Rocket 4.1 20:31:49 10° S 20:37:00 59° ESE 20:42:13 10° NNE
SL-8 R/B 3.7 20:32:33 10° WNW 20:37:23 84° NNE 20:41:23 15° ESE
SPOT 1/Viking Rocket 4.4 20:35:01 10° S 20:39:58 48° W 20:44:59 10° NNW
COSMOS 2406 3.6 20:36:53 10° S 20:42:19 44° ESE 20:47:46 10° NE
Spot 2 Rocket 3.6 20:38:46 16° SSE 20:42:44 64° ENE 20:47:48 10° N
X-37B 0.2 20:42:36 10° WNW 20:45:25 84° NNE 20:47:01 23° E
Cosmos 2154 Rocket 4.1 20:39:20 10° N 20:45:30 60° E 20:50:11 18° SSE
ATLAS 5 CENTAUR R/B 3.4 20:48:00 11° E 20:48:00 11° E 20:48:20 10° E
CZ-2C R/B 4.0 20:44:39 10° NNE 20:49:02 46° E 20:51:58 19° SSE
SPOT 5 2.6 20:49:45 20° SSE 20:52:45 76° ENE 20:57:05 10° N
Cosmos 1703 3.4 20:51:20 10° SSW 20:55:09 70° W 20:59:01 10° N
Cosmos 2084 Rocket 3.9 20:53:58 10° NNW 20:57:45 46° NE 21:00:03 22° ESE
Cosmos 1452 Rocket 4.3 20:53:04 10° SW 20:58:12 54° WNW 21:03:22 10° NNE
Cosmos 1833 Rocket 2.8 20:52:47 10° SSW 20:58:24 82° WNW 21:04:04 10° NNE
RESURS DK-1 2.7 20:54:45 10° NNW 20:58:50 59° WSW 21:01:19 22° S
Terra 2.0 20:56:27 22° SSE 20:59:25 61° ENE 21:04:07 10° N
Delta 2 Rocket 4.3 20:57:49 10° SW 20:59:57 20° SSW 20:59:57 20° SSW
CZ-4B R/B 4.0 21:00:40 10° NNW 21:02:38 17° WNW 21:04:36 10° WSW
Helios 1A Rocket 2.9 21:01:06 24° SSE 21:03:33 89° W 21:07:40 10° NNW
Cosmos 1110 Rocket 4.2 20:58:53 10° SSW 21:04:08 75° WNW 21:09:28 10° NNE
ERS-1 Rocket 2.9 21:02:33 21° SSE 21:05:57 89° E 21:11:00 10° NNW
Cosmos 1892 Rocket 4.0 21:04:14 26° SE 21:06:11 42° E 21:10:20 10° NNE
Resurs 01 Rocket 3.9 21:03:30 10° SW 21:06:44 20° W 21:10:00 10° NW
Cosmos 1302 Rocket 4.1 21:03:52 19° S 21:07:27 53° ESE 21:12:29 10° NNE
Cosmos 2322 Rocket 4.5 21:06:43 10° NNE 21:09:28 14° NE 21:12:13 10° ENE
Cosmos 2228 3.2 21:08:26 10° NNW 21:12:39 65° W 21:15:16 22° S
Cosmos 2058 Rocket 3.9 21:09:31 10° N 21:13:38 36° ENE 21:15:19 26° ESE
Cosmos 1825 3.9 21:15:03 17° E 21:15:10 17° E 21:17:39 10° NE
Cosmos 2184 Rocket 4.4 21:10:36 10° NNW 21:16:39 59° W 21:21:54 14° SSW
Cosmos 1408 3.1 21:16:15 34° ESE 21:16:43 36° E 21:19:54 10° NNE
Meteor 1-11 4.5 21:15:39 25° SSE 21:18:40 51° E 21:24:03 10° NNE
Lacrosse 5 4.0 21:16:05 10° W 21:19:09 16° WSW 21:22:05 10° SSW
Cosmos 968 Rocket 3.6 21:18:53 10° NNW 21:24:04 65° ENE 21:26:36 30° SE
Cosmos 1328 3.9 21:22:06 24° SSW 21:24:24 78° W 21:28:25 10° N
USA 276 4.2 21:25:40 10° NW 21:28:15 25° N 21:30:50 10° ENE
Cosmos 2082 Rocket 2.1 21:27:22 15° SSW 21:32:11 79° ESE 21:37:54 10° NNE
SJ 16-02 3.8 21:31:12 10° NNE 21:33:02 12° NE 21:34:51 10° ENE
ASTRO F (AKARI) 4.4 21:32:25 49° SSE 21:33:19 88° ENE 21:36:51 10° NNW
Cosmos 1867 3.7 21:28:20 10° NNW 21:33:48 66° NE 21:36:30 30° SE
ARIANE 5 R/B 2.7 21:35:43 34° S 21:37:37 75° WSW 21:42:03 10° NNW
USA 267 3.4 21:31:20 10° ENE 21:37:41 51° SE 21:44:00 10° SSW
Cosmos 1606 Rocket 4.2 21:37:09 10° NNW 21:41:20 49° W 21:43:23 27° SSW
GP-B 3.2 21:37:55 10° N 21:42:19 59° E 21:43:34 42° SSE
Cosmos 2341 Rocket 4.0 21:37:31 10° N 21:43:52 79° E 21:47:01 32° SSE
Cosmos 2360 Rocket 4.4 21:42:11 10° N 21:45:38 16° NE 21:49:04 10° E
SAR-Lupe-4 3.5 21:42:54 10° NNE 21:46:28 61° ESE 21:46:46 58° SE
CSL-04 DEB 4.5 21:48:41 10° NNE 21:53:04 78° ESE 21:54:21 45° S
Okean 1-7 Rocket 3.6 21:58:40 49° SSE 21:59:37 63° E 22:04:04 10° NNE
Cosmos 1892 2.9 22:02:06 47° SW 22:02:57 64° W 22:06:43 10° N
SAR-Lupe-1 4.2 21:59:26 10° N 22:03:01 71° WNW 22:03:38 55° SW
Cosmos 1758 Rocket 4.4 22:08:36 33° E 22:08:49 33° E 22:12:45 10° NNE
Cosmos 2181 Rocket 3.9 22:07:21 33° S 22:10:18 90° ESE 22:16:35 10° N
USA 234 4.1 22:05:08 10° E 22:11:21 48° NNE 22:17:35 10° NW
Cosmos 1633 3.5 22:12:09 34° ENE 22:12:09 34° ENE 22:14:49 10° NNE
Cosmos 1992 Rocket 4.0 22:15:19 36° SSW 22:17:30 84° WNW 22:22:47 10° NNE
Cosmos 1697 Rocket 4.3 22:14:31 10° NW 22:18:50 23° W 22:21:16 17° SW
Cosmos 1980 Rocket 2.8 22:13:32 10° NW 22:18:58 47° WSW 22:20:53 34° SSW
SL-16 R/B 2.8 22:13:35 10° NNW 22:19:07 50° ENE 22:21:23 32° ESE
Cosmos 1821 Rocket 4.4 22:13:08 10° N 22:19:11 50° ENE 22:21:23 35° SE
Cosmos 1486 Rocket 3.9 22:14:23 10° NNW 22:19:37 87° ENE 22:21:05 49° SSE
Cosmos 1812 Rocket 3.9 22:17:08 10° N 22:21:31 52° ENE 22:22:08 48° ESE
ATLAS 5 CENTAUR R/B 1.8 22:29:22 36° WSW 22:30:36 55° NW 22:34:40 10° NNE
Cosmos-2242 3.3 22:26:42 10° N 22:30:51 50° ENE 22:31:12 49° E
Cosmos 1602 Rocket 3.3 22:32:11 71° SSE 22:32:36 81° E 22:36:57 10° N
Cosmos 1869 3.5 22:31:07 10° NNW 22:34:56 57° W 22:35:09 56° WSW
Terra 4.1 22:35:21 12° WSW 22:37:34 15° W 22:40:21 10° NW
Nadezhda 3 Rocket 4.1 22:36:22 43° SSE 22:38:10 59° E 22:44:13 10° NNE
ERS-2 4.0 22:35:49 10° NE 22:37:40 19° ENE 22:37:40 19° ENE
ALOS 2 2.8 22:39:49 52° ESE 22:40:23 57° ENE 22:44:42 10° N
FALCON 9 DEB 4.0 22:39:55 10° NW 22:42:17 44° NW 22:42:17 44° NW
Cosmos 1354 Rocket 4.0 22:42:33 10° NNW 22:47:53 75° ENE 22:49:06 53° SE
ADEOS Rocket 3.5 22:45:43 37° SSE 22:48:55 75° ENE 22:56:39 10° N
BREEZE-M DEB (TANK) 4.4 22:45:36 10° WNW 22:49:05 60° NNE 23:02:57 10° E
Cosmos 1825 3.5 22:49:40 29° W 22:50:14 31° WNW 22:53:36 10° NNW
Cosmos 2322 Rocket 2.3 22:48:58 10° NNW 22:54:39 67° ENE 22:56:24 44° SE
Cosmos 1503 Rocket 4.0 22:52:21 10° NNW 22:57:38 75° WSW 22:58:35 58° S
Cosmos 1953 Rocket 4.3 22:58:43 41° E 22:58:45 41° E 23:02:55 10° NNE
USA 276 4.1 23:01:21 10° WNW 23:02:49 25° NW 23:02:49 25° NW
MINOTAUR IV R/B 4.4 23:00:52 10° NNW 23:05:28 80° WSW 23:05:45 75° SSW
Cosmos 1777 Rocket 4.1 23:00:24 10° NNW 23:05:42 70° ENE 23:06:53 52° SE
Cosmos 1825 Rocket 3.3 23:08:18 82° SE 23:08:24 83° E 23:12:45 10° N
CENTAUR R/B 4.1 23:09:34 16° ESE 23:09:47 16° ESE 23:13:32 10° ENE
Cosmos 2333 Rocket 3.4 23:04:27 10° NNW 23:09:48 37° NE 23:12:51 22° ESE
Gbstr 26 Del rocket 3.0 23:11:09 70° ESE 23:11:09 70° ESE 23:15:52 10° ENE
SJ 16-02 1.2 23:07:45 10° NNW 23:12:12 80° WSW 23:12:19 79° SW
Cosmos 1340 Rocket 3.1 23:13:04 55° ENE 23:13:04 55° ENE 23:16:34 10° NNE
H-2A R/B 3.9 23:16:23 10° N 23:20:28 51° WNW 23:20:55 49° W
USA 267 3.9 23:14:22 10° NE 23:20:43 56° NNW 23:27:04 10° WSW
Cosmos 2058 3.0 23:26:08 66° W 23:26:12 66° W 23:30:23 10° N
Cosmos 2221 2.9 23:23:43 10° N 23:27:59 51° ENE 23:28:17 50° E
Cosmos 1606 3.5 23:24:58 10° NNW 23:28:16 43° WNW 23:28:16 43° WNW
Cosmos 2360 Rocket 2.1 23:24:50 10° NNW 23:30:33 83° ENE 23:32:00 52° SE
Cosmos 1842 Rocket 4.4 23:26:24 10° N 23:30:40 41° ENE 23:31:14 39° E
Cosmos 1934 Rocket 3.9 23:25:16 10° N 23:31:23 89° ENE 23:33:06 51° S
Nimbus 7 Rocket 4.4 23:29:07 10° NNE 23:35:05 74° ESE 23:36:36 51° S
Resurs 1-4 Rocket 4.4 23:34:50 10° ENE 23:36:15 11° E 23:37:40 10° ESE
Cosmos 1782 4.4 23:33:26 10° NNE 23:36:46 25° ENE 23:37:13 24° E
Cosmos 1833 4.1 23:39:57 57° SSW 23:41:11 87° ESE 23:46:48 10° NNE
Cosmos 44 2.9 23:41:21 80° SSW 23:41:36 88° ESE 23:46:06 10° NE
Meteor 2-2 Rocket 4.5 23:37:09 10° NNW 23:43:08 66° W 23:44:36 49° SSW
CZ-2D R/B 4.3 23:42:47 10° ENE 23:44:58 13° E 23:46:39 11° ESE
Cosmos 2237 4.5 23:40:37 10° NW 23:46:07 49° WSW 23:46:53 46° SW
Cosmos 1339 Rocket 4.5 23:50:04 48° SSW 23:51:54 76° W 23:58:04 10° N
